Weather in Koblyakovo

Russia / Irkutsk Oblast     56°35′15″N   101°26′06″E
temp.,
°C
wind,
m/s
gust,
m/s
humid.,
%
clouds,
%
prec.,
mm/h
press.,
hPa
HPBL,
m
5 march, fri
fri523:00−24se229583 0.0 103359
02:00−22se369691 0.0 1032170
05:00−20se3896100 0.0 1030267
08:00−22se369691 0.0 1029141
11:00−17sse489172 0.0 1028363
14:00−14sse479085 0.0 1024380
17:00−11se4889100 0.0 1020426
20:00−13se3594100 0.0 1020139
6 march, sat
sat623:00−15sse259598 0.0 101993
02:00−14sse239699 0.0 102082
05:00−12s2496100 0.4 1018156
08:00−7wsw4139097 0.7 1019781
11:00−6w6128155 0.0 10191057
14:00−3wsw598077 0.1 10181274
17:00−3wsw4980100 0.4 10171376
20:00−5sw3992100 0.4 1018362
7 march, sun
sun723:00−5ssw31096100 0.3 1016459
02:00−5ssw4995100 0.4 1014499
05:00−6ssw3119199 0.1 1013371
08:00−7ssw398999 0.1 1012242
11:00−3wsw51381100 0.0 10111327
14:00−1wsw61382100 0.1 10111495
17:00−2wsw51092100 0.4 1011855
20:00−5wsw4138791 0.9 10121054
8 march, mon
mon823:00−8w4148387 0.0 1015780
02:00−11w3128992 0.0 1018542
05:00−13w31292100 0.0 1021589
08:00−14w31192100 0.1 1024522
11:00−11w498590 0.0 1025714
14:00−8w368295 0.0 1026839
17:00−8ssw3484100 0.1 1024724
20:00−13se2395100 0.1 102365
9 march, tue
tue923:00−14se3109489 0.0 1020225
02:00−10sse4158695 0.0 1015569
05:00−8s41289100 0.0 1013520
08:00−8s2694100 0.0 1013163
11:000w61476100 0.6 10131978
14:00−1w8176796 0.9 10151937
17:00−4w6147285 0.0 10171539
20:00−10w4148568 0.0 1021856